Flag for Canada Weather past 2 weeks in Kings County, Nova Scotia, Canada

Now
47 °F

Cool.


Feels Like: 44 °F
Forecast: 29 / 45 °F
Wind: 5 mph from North

Location: McNabs Island - AUT

Current Time: Apr 19, 2015 at 3:31:47 PM

Latest Report: Apr 19, 2015 at 3:00 PM


Visibility: N/A

Pressure: 30.16 "Hg

Humidity: 33%

Dew point: 19 °F

Location of Kings CountyLocation

Historic Weather in Kings County — Graph

°F

Kings County temperature yesterday

Maximum temperature yesterday: 51 °F (at 2:00 PM)
Minimum temperature yesterday: 35 °F (at 11:00 PM)
Average temperature yesterday: 43 °F

Past Weeks' High & Low Weather Summary

 TemperatureHumidityPressure
High57 °F (Apr 15, 1:00 PM)100% (Apr 4, 2:00 PM)30.57 "Hg (Apr 4, 2:00 PM)
Low21 °F (Apr 6, 5:00 AM)30% (Apr 8, 5:00 PM)29.15 "Hg (Apr 4, 5:00 PM)
Average37 °F74%30.10 "Hg
* Reported Apr 4 2:00 PM — Apr 19 2:00 PM, Kings County, Weather by CustomWeather, © 2015

Note: Actual official high and low records may vary slightly from our data, if they occured in-between our weather recording intervals... More about our weather records

Advertising

Kings County weather history for previous 24 hours

 ConditionsComfort  
Time TempWeatherWind HumidityBarometerVisibility
2:00 PM
Sun, Apr 19
44 °FQuite cool.9 mph38%30.16 "HgN/A
1:00 PM43 °FQuite cool.7 mph46%30.16 "HgN/A
12:00 PM43 °FQuite cool.6 mph40%30.17 "HgN/A
11:00 AM40 °FQuite cool.6 mph48%30.17 "HgN/A
10:00 AM38 °FChilly.7 mph50%30.17 "HgN/A
9:00 AM35 °FChilly.8 mph61%30.17 "HgN/A
8:00 AM32 °FChilly.7 mph71%30.15 "HgN/A
7:00 AM30 °FChilly.6 mph84%30.12 "HgN/A
6:00 AM30 °FChilly.5 mph81%30.09 "HgN/A
5:00 AM30 °FChilly.5 mph80%30.07 "HgN/A
4:00 AM30 °FChilly.6 mph81%30.06 "HgN/A
3:00 AM30 °FChilly.2 mph82%30.06 "HgN/A
2:00 AM31 °FChilly.6 mph79%30.03 "HgN/A
1:00 AM32 °FChilly.8 mph77%30.01 "HgN/A
12:00 AM33 °FChilly.8 mph73%30.03 "HgN/A
11:00 PM
Sat, Apr 18
35 °FChilly.5 mph63%30.02 "HgN/A
10:00 PM36 °FChilly.6 mph61%30.01 "HgN/A
9:00 PM38 °FChilly.2 mph57%30.01 "HgN/A
8:00 PM41 °FQuite cool.7 mph53%29.97 "HgN/A
7:00 PM44 °FQuite cool.7 mph46%29.96 "HgN/A
6:00 PM44 °FQuite cool.2 mph56%29.92 "HgN/A
5:00 PM47 °FCool.8 mph43%29.91 "HgN/A
4:00 PM51 °FCool.6 mph40%29.91 "HgN/A
3:00 PM51 °FCool.8 mph42%29.91 "HgN/A
Weather by CustomWeather, © 2015

See weather overviewHow to use our weather pages